• In Czech Republic
  • List of Countries
  • For 7 days
  • Water Temperature
  • Satellite Maps
  • Weather Map
  • Weather Widgets
  • user-avatar
    Login

    Hourly Weather Biskira

    Today, 18 February, Sunday

    Time Temperature Precipitation Wind Pressure Humidity
    00:00 +15°C° 0 mm 1 mps 754 mmHg 73%
    01:00 +15°C° 0 mm 1 mps 754 mmHg 74%
    02:00 +14°C° 0 mm 1 mps 754 mmHg 75%
    03:00 +14°C° 0 mm 2 mps 753 mmHg 76%
    04:00 +14°C° 0 mm 2 mps 753 mmHg 77%
    05:00 +14°C° 0 mm 2 mps 753 mmHg 77%
    06:00 +14°C° 0 mm 2 mps 753 mmHg 77%
    07:00 +14°C° 0 mm 3 mps 753 mmHg 72%
    08:00 +16°C° 0 mm 3 mps 753 mmHg 66%
    09:00 +17°C° 0 mm 3 mps 753 mmHg 61%
    10:00 +18°C° 0 mm 3 mps 753 mmHg 56%
    11:00 +19°C° 0 mm 3 mps 753 mmHg 51%
    12:00 +20°C° 0 mm 2 mps 752 mmHg 47%
    13:00 +20°C° 0 mm 2 mps 752 mmHg 46%
    14:00 +20°C° 0 mm 2 mps 752 mmHg 45%
    15:00 +21°C° 0 mm 2 mps 752 mmHg 44%
    16:00 +20°C° 0 mm 3 mps 752 mmHg 46%
    17:00 +19°C° 0 mm 3 mps 752 mmHg 49%
    18:00 +19°C° 0 mm 3 mps 752 mmHg 51%
    19:00 +18°C° 0 mm 3 mps 752 mmHg 54%
    20:00 +17°C° 0 mm 3 mps 753 mmHg 56%
    21:00 +17°C° 0 mm 3 mps 753 mmHg 59%
    22:00 +16°C° 0.1 mm 3 mps 753 mmHg 60%
    23:00 +16°C° 0.1 mm 3 mps 753 mmHg 62%

    Tomorrow, 19 February, Monday

    Time Temperature Precipitation Wind Pressure Humidity
    00:00 +14°C° 0.1 mm 3 mps 753 mmHg 63%
    01:00 +15°C° 0.2 mm 2 mps 753 mmHg 65%
    02:00 +14°C° 0.2 mm 2 mps 752 mmHg 67%
    03:00 +14°C° 0.2 mm 1 mps 752 mmHg 70%
    04:00 +13°C° 0.1 mm 1 mps 752 mmHg 71%
    05:00 +13°C° 0.1 mm 1 mps 752 mmHg 72%
    06:00 +13°C° 0.1 mm 1 mps 752 mmHg 73%
    07:00 +14°C° 0 mm 1 mps 752 mmHg 68%
    08:00 +15°C° 0 mm 1 mps 752 mmHg 64%
    09:00 +16°C° 0 mm 2 mps 753 mmHg 60%
    10:00 +16°C° 0 mm 2 mps 752 mmHg 58%
    11:00 +17°C° 0 mm 2 mps 752 mmHg 55%
    12:00 +17°C° 0 mm 2 mps 752 mmHg 53%
    13:00 +18°C° 0.1 mm 2 mps 751 mmHg 51%
    14:00 +18°C° 0.1 mm 2 mps 751 mmHg 50%
    15:00 +18°C° 0.1 mm 2 mps 750 mmHg 48%
    16:00 +18°C° 0.1 mm 2 mps 750 mmHg 50%
    17:00 +19°C° 0.1 mm 1 mps 750 mmHg 52%
    18:00 +18°C° 0.1 mm 1 mps 750 mmHg 53%
    19:00 +18°C° 0.1 mm 1 mps 751 mmHg 56%
    20:00 +18°C° 0.1 mm 1 mps 751 mmHg 59%
    21:00 +16°C° 0.1 mm 1 mps 751 mmHg 61%
    22:00 +16°C° 0.1 mm 1 mps 751 mmHg 64%
    23:00 +15°C° 0.1 mm 1 mps 751 mmHg 67%

    Day after tomorrow, 20 February, Tuesday

    Time Temperature Precipitation Wind Pressure Humidity
    00:00 +15°C° 0.1 mm 1 mps 751 mmHg 70%
    01:00 +15°C° 0.5 mm 1 mps 750 mmHg 72%
    02:00 +14°C° 0.5 mm 1 mps 750 mmHg 74%
    03:00 +14°C° 0.5 mm 1 mps 750 mmHg 76%
    04:00 +13°C° 0.4 mm 1 mps 750 mmHg 77%
    05:00 +13°C° 0.4 mm 1 mps 750 mmHg 78%
    06:00 +13°C° 0.4 mm 1 mps 750 mmHg 79%
    07:00 +13°C° 0.2 mm 2 mps 750 mmHg 74%
    08:00 +14°C° 0.2 mm 2 mps 750 mmHg 68%
    09:00 +14°C° 0.2 mm 2 mps 751 mmHg 63%
    10:00 +15°C° 0.1 mm 2 mps 750 mmHg 58%
    11:00 +16°C° 0.1 mm 2 mps 750 mmHg 53%
    12:00 +16°C° 0.1 mm 2 mps 750 mmHg 48%
    13:00 +17°C° 0.1 mm 3 mps 749 mmHg 44%
    14:00 +17°C° 0.1 mm 3 mps 748 mmHg 41%
    15:00 +18°C° 0.1 mm 3 mps 748 mmHg 37%
    16:00 +17°C° 0 mm 3 mps 748 mmHg 38%
    17:00 +17°C° 0 mm 3 mps 748 mmHg 40%
    18:00 +17°C° 0 mm 3 mps 748 mmHg 42%
    19:00 +16°C° 0 mm 3 mps 748 mmHg 45%
    20:00 +14°C° 0 mm 3 mps 749 mmHg 49%
    21:00 +14°C° 0 mm 3 mps 749 mmHg 52%
    22:00 +13°C° 0 mm 3 mps 749 mmHg 55%
    23:00 +13°C° 0 mm 3 mps 748 mmHg 57%

    21 February, Wednesday

    Time Temperature Precipitation Wind Pressure Humidity
    00:00 +12°C° 0 mm 3 mps 748 mmHg 60%
    01:00 +12°C° 0 mm 3 mps 748 mmHg 62%
    02:00 +12°C° 0 mm 3 mps 747 mmHg 63%
    03:00 +11°C° 0 mm 3 mps 747 mmHg 65%
    04:00 +11°C° 0 mm 4 mps 747 mmHg 66%
    05:00 +11°C° 0 mm 4 mps 746 mmHg 66%
    06:00 +11°C° 0 mm 4 mps 746 mmHg 67%
    07:00 +12°C° 0 mm 4 mps 746 mmHg 62%
    08:00 +13°C° 0 mm 4 mps 746 mmHg 57%
    09:00 +14°C° 0 mm 4 mps 746 mmHg 53%
    10:00 +15°C° 0 mm 4 mps 746 mmHg 51%
    11:00 +17°C° 0 mm 4 mps 746 mmHg 48%
    12:00 +17°C° 0 mm 5 mps 745 mmHg 46%
    13:00 +17°C° 0 mm 5 mps 745 mmHg 44%
    14:00 +17°C° 0 mm 5 mps 744 mmHg 43%
    15:00 +19°C° 0 mm 5 mps 744 mmHg 41%
    16:00 +18°C° 0 mm 4 mps 744 mmHg 43%
    17:00 +17°C° 0 mm 4 mps 744 mmHg 45%
    18:00 +17°C° 0 mm 3 mps 744 mmHg 47%
    19:00 +16°C° 0 mm 3 mps 744 mmHg 49%
    20:00 +16°C° 0 mm 2 mps 744 mmHg 51%
    21:00 +15°C° 0 mm 2 mps 744 mmHg 53%
    22:00 +15°C° 0 mm 2 mps 744 mmHg 56%
    23:00 +14°C° 0 mm 2 mps 744 mmHg 58%

    22 February, Thursday

    Time Temperature Precipitation Wind Pressure Humidity
    00:00 +14°C° 0 mm 2 mps 743 mmHg 61%
    01:00 +13°C° 0 mm 2 mps 743 mmHg 63%
    02:00 +13°C° 0 mm 1 mps 742 mmHg 66%
    03:00 +12°C° 0 mm 1 mps 742 mmHg 68%
    04:00 +12°C° 0.1 mm 2 mps 742 mmHg 70%
    05:00 +10°C° 0.1 mm 2 mps 741 mmHg 72%
    06:00 +10°C° 0.1 mm 2 mps 741 mmHg 74%
    07:00 +12°C° 0.1 mm 2 mps 741 mmHg 70%
    08:00 +12°C° 0.1 mm 2 mps 741 mmHg 67%
    09:00 +12°C° 0.1 mm 3 mps 742 mmHg 63%
    10:00 +13°C° 0 mm 3 mps 741 mmHg 55%
    11:00 +14°C° 0 mm 4 mps 741 mmHg 47%
    12:00 +15°C° 0 mm 4 mps 741 mmHg 39%
    13:00 +15°C° 0 mm 5 mps 741 mmHg 36%
    14:00 +16°C° 0 mm 5 mps 740 mmHg 34%
    15:00 +16°C° 0 mm 5 mps 740 mmHg 31%
    16:00 +15°C° 0 mm 5 mps 740 mmHg 33%
    17:00 +15°C° 0 mm 4 mps 740 mmHg 36%
    18:00 +14°C° 0 mm 3 mps 741 mmHg 38%
    19:00 +14°C° 0 mm 3 mps 741 mmHg 40%
    20:00 +14°C° 0 mm 2 mps 741 mmHg 42%
    21:00 +14°C° 0 mm 2 mps 741 mmHg 44%
    22:00 +13°C° 0 mm 2 mps 741 mmHg 46%
    23:00 +13°C° 0 mm 2 mps 742 mmHg 48%

    23 February, Friday

    Time Temperature Precipitation Wind Pressure Humidity
    00:00 +12°C° 0 mm 3 mps 742 mmHg 50%
    01:00 +12°C° 0 mm 2 mps 742 mmHg 52%
    02:00 +12°C° 0 mm 2 mps 741 mmHg 55%
    03:00 +10°C° 0 mm 2 mps 741 mmHg 57%
    04:00 +10°C° 0 mm 2 mps 742 mmHg 56%
    05:00 +9°C° 0 mm 2 mps 742 mmHg 56%
    06:00 +9°C° 0 mm 2 mps 742 mmHg 55%
    07:00 +10°C° 0 mm 2 mps 742 mmHg 49%
    08:00 +13°C° 0 mm 1 mps 743 mmHg 43%
    09:00 +14°C° 0 mm 1 mps 743 mmHg 36%
    10:00 +15°C° 0 mm 1 mps 742 mmHg 33%
    11:00 +16°C° 0 mm 1 mps 742 mmHg 30%
    12:00 +18°C° 0 mm 1 mps 742 mmHg 27%
    13:00 +18°C° 0 mm 2 mps 741 mmHg 27%
    14:00 +19°C° 0 mm 2 mps 741 mmHg 26%
    15:00 +19°C° 0 mm 2 mps 740 mmHg 26%
    16:00 +18°C° 0 mm 2 mps 740 mmHg 28%
    17:00 +18°C° 0 mm 2 mps 740 mmHg 31%
    18:00 +17°C° 0 mm 2 mps 740 mmHg 33%
    19:00 +17°C° 0 mm 2 mps 740 mmHg 34%
    20:00 +16°C° 0 mm 2 mps 740 mmHg 35%
    21:00 +16°C° 0 mm 2 mps 741 mmHg 36%
    22:00 +15°C° 0 mm 1 mps 740 mmHg 38%
    23:00 +15°C° 0 mm 1 mps 740 mmHg 40%
    Show more